| time (UTC) | temp F | wind direction | speed knots | gust knots | rain 1hr in | rain 24hr in | rain mn in | humidity % | barometer mb |
| 20260503053052 | 46 | 0 | 0.0 | 0.0 | 0.00 | 0.02 | 0.00 | 94 | 1007.3 |
| 20260503051558 | 46 | 0 | 0.0 | 0.0 | 0.00 | 0.02 | 0.00 | 95 | 1007.3 |
| 20260503050052 | 46 | 0 | 0.0 | 0.0 | 0.00 | 0.02 | 0.00 | 94 | 1007.6 |
| 20260503044602 | 46 | 0 | 0.0 | 0.0 | 0.00 | 0.02 | 0.02 | 94 | 1007.3 |
| 20260503043057 | 47 | 0 | 0.0 | 0.9 | 0.00 | 0.02 | 0.02 | 94 | 1007.6 |
| 20260503041550 | 47 | 0 | 0.0 | 0.9 | 0.00 | 0.02 | 0.02 | 93 | 1007.6 |
| 20260503040100 | 47 | 0 | 0.0 | 1.7 | 0.01 | 0.02 | 0.02 | 93 | 1007.8 |
| 20260503034600 | 47 | 0 | 0.0 | 0.0 | 0.01 | 0.02 | 0.02 | 92 | 1008.1 |
| 20260503033054 | 48 | 0 | 0.0 | 0.9 | 0.02 | 0.02 | 0.02 | 90 | 1008.3 |
| 20260503031555 | 48 | 0 | 0.0 | 0.0 | 0.02 | 0.02 | 0.02 | 88 | 1008.6 |
| 20260503030118 | 49 | 0 | 0.0 | 0.9 | 0.01 | 0.01 | 0.01 | 86 | 1008.9 |
| 20260503024550 | 50 | 0 | 0.0 | 1.7 | 0.01 | 0.01 | 0.01 | 83 | 1009.0 |
| 20260503023048 | 51 | 0 | 0.0 | 6.1 | 0.00 | 0.00 | 0.00 | 79 | 1009.1 |
| 20260503021550 | 53 | 243 | 0.9 | 6.1 | 0.00 | 0.00 | 0.00 | 69 | 1008.9 |
| 20260503020052 | 55 | 216 | 1.7 | 9.6 | 0.00 | 0.00 | 0.00 | 60 | 1008.9 |
| 20260503014601 | 56 | 232 | 0.9 | 8.7 | 0.00 | 0.00 | 0.00 | 54 | 1008.7 |
| 20260503013052 | 56 | 259 | 1.7 | 8.7 | 0.00 | 0.00 | 0.00 | 52 | 1008.6 |
| 20260503011558 | 57 | 304 | 0.9 | 8.7 | 0.00 | 0.00 | 0.00 | 50 | 1008.7 |
| 20260503010104 | 57 | 258 | 0.9 | 7.0 | 0.00 | 0.00 | 0.00 | 49 | 1008.5 |
| 20260503004551 | 58 | 5 | 1.7 | 8.7 | 0.00 | 0.00 | 0.00 | 47 | 1008.3 |
| 20260503003059 | 58 | 282 | 0.9 | 6.1 | 0.00 | 0.00 | 0.00 | 45 | 1008.4 |
| 20260503001555 | 58 | 234 | 0.9 | 4.3 | 0.00 | 0.00 | 0.00 | 43 | 1008.0 |
| 20260503000054 | 59 | 246 | 0.9 | 4.3 | 0.00 | 0.00 | 0.00 | 44 | 1008.3 |
| 20260502234554 | 59 | 0 | 0.9 | 5.2 | 0.00 | 0.00 | 0.00 | 42 | 1008.1 |
| 20260502233052 | 59 | 211 | 0.9 | 5.2 | 0.00 | 0.00 | 0.00 | 42 | 1008.4 |
| 20260502231556 | 60 | 265 | 0.9 | 9.6 | 0.00 | 0.00 | 0.00 | 41 | 1008.6 |
| 20260502230053 | 60 | 248 | 1.7 | 6.1 | 0.00 | 0.00 | 0.00 | 39 | 1008.7 |
| 20260502224550 | 61 | 232 | 0.9 | 6.1 | 0.00 | 0.00 | 0.00 | 39 | 1008.7 |
| 20260502223051 | 61 | 0 | 1.7 | 9.6 | 0.00 | 0.00 | 0.00 | 38 | 1008.6 |
| 20260502221551 | 61 | 219 | 0.9 | 11.3 | 0.00 | 0.00 | 0.00 | 37 | 1008.9 |
| 20260502220055 | 62 | 238 | 2.6 | 9.6 | 0.00 | 0.00 | 0.00 | 35 | 1008.9 |
| 20260502214554 | 61 | 241 | 3.5 | 11.3 | 0.00 | 0.00 | 0.00 | 37 | 1009.4 |
| 20260502213051 | 60 | 201 | 1.7 | 8.7 | 0.00 | 0.00 | 0.00 | 37 | 1009.4 |
| 20260502211551 | 59 | 214 | 4.3 | 9.6 | 0.00 | 0.00 | 0.00 | 38 | 1009.5 |
| 20260502210054 | 59 | 261 | 2.6 | 12.2 | 0.00 | 0.00 | 0.00 | 36 | 1009.9 |
| 20260502204609 | 59 | 245 | 2.6 | 8.7 | 0.00 | 0.00 | 0.00 | 37 | 1010.1 |
| 20260502203113 | 61 | 242 | 2.6 | 7.8 | 0.00 | 0.00 | 0.00 | 35 | 1010.2 |
| 20260502201552 | 60 | 236 | 1.7 | 9.6 | 0.00 | 0.00 | 0.00 | 36 | 1010.8 |
| 20260502200052 | 60 | 234 | 2.6 | 11.3 | 0.00 | 0.00 | 0.00 | 36 | 1011.0 |
| 20260502194554 | 59 | 288 | 3.5 | 9.6 | 0.00 | 0.00 | 0.00 | 35 | 1011.2 |
| 20260502193051 | 60 | 250 | 2.6 | 7.8 | 0.00 | 0.00 | 0.00 | 35 | 1011.4 |
| 20260502191558 | 59 | 284 | 1.7 | 7.8 | 0.00 | 0.00 | 0.00 | 37 | 1011.8 |
| 20260502190054 | 58 | 210 | 3.5 | 11.3 | 0.00 | 0.00 | 0.00 | 38 | 1012.0 |
| 20260502184600 | 57 | 327 | 2.6 | 11.3 | 0.00 | 0.00 | 0.00 | 38 | 1012.1 |
| 20260502183052 | 57 | 231 | 1.7 | 8.7 | 0.00 | 0.00 | 0.00 | 38 | 1012.5 |
| 20260502181611 | 57 | 0 | 2.6 | 10.4 | 0.00 | 0.00 | 0.00 | 35 | 1012.8 |
| 20260502163104 | 54 | 279 | 0.9 | 8.7 | 0.00 | 0.00 | 0.00 | 36 | 1014.6 |
| 20260502161559 | 52 | 182 | 1.7 | 9.6 | 0.00 | 0.00 | 0.00 | 39 | 1014.8 |
| 20260502151606 | 49 | 198 | 0.9 | 7.0 | 0.00 | 0.00 | 0.00 | 41 | 1015.7 |
| 20260502140105 | 43 | 200 | 0.9 | 3.5 | 0.00 | 0.00 | 0.00 | 58 | 1016.7 |
| 20260502123053 | 32 | 0 | 0.0 | 0.0 | 0.00 | 0.00 | 0.00 | 89 | 1017.1 |
| 20260502121555 | 28 | 0 | 0.0 | 0.0 | 0.00 | 0.00 | 0.00 | 92 | 1017.1 |
| 20260502120106 | 26 | 0 | 0.0 | 0.0 | 0.00 | 0.00 | 0.00 | 90 | 1017.3 |
| 20260502114559 | 26 | 0 | 0.0 | 0.0 | 0.00 | 0.00 | 0.00 | 93 | 1017.3 |
| 20260502113053 | 23 | 0 | 0.0 | 0.0 | 0.00 | 0.00 | 0.00 | 93 | 1017.4 |
| 20260502111551 | 23 | 0 | 0.0 | 0.0 | 0.00 | 0.00 | 0.00 | 92 | 1017.1 |
| 20260502110058 | 23 | 0 | 0.0 | 0.0 | 0.00 | 0.00 | 0.00 | 91 | 1017.2 |
| 20260502104550 | 23 | 0 | 0.0 | 0.0 | 0.00 | 0.00 | 0.00 | 91 | 1017.2 |
| 20260502103059 | 24 | 0 | 0.0 | 0.0 | 0.00 | 0.00 | 0.00 | 91 | 1017.1 |
| 20260502101552 | 24 | 0 | 0.0 | 0.0 | 0.00 | 0.00 | 0.00 | 92 | 1017.4 |
| 20260502080104 | 26 | 0 | 0.0 | 0.0 | 0.00 | 0.00 | 0.00 | 86 | 1017.5 |
| 20260502070056 | 27 | 0 | 0.0 | 0.0 | 0.00 | 0.00 | 0.00 | 85 | 1017.9 |
| 20260502064602 | 27 | 0 | 0.0 | 0.0 | 0.00 | 0.00 | 0.00 | 84 | 1018.1 |
| 20260502063058 | 28 | 0 | 0.0 | 0.0 | 0.00 | 0.00 | 0.00 | 84 | 1018.3 |
| 20260502061551 | 28 | 0 | 0.0 | 0.0 | 0.00 | 0.00 | 0.00 | 83 | 1018.4 |
| 20260502060054 | 28 | 0 | 0.0 | 0.0 | 0.00 | 0.00 | 0.00 | 82 | 1018.4 |
| 20260502054559 | 28 | 0 | 0.0 | 0.0 | 0.00 | 0.00 | 0.00 | 81 | 1018.6 |